Location: Unspecified
(39.2014°N, 0.0000°E)
Time: 07:11:19
(UTC+00:00)

Meteor 2-4 - Visible Passes

Search period start: 04 April 2026 00:00
Search period end: 14 April 2026 00:00
Orbit: 834 x 869 km, 81.2° (Epoch: 29 March)

Date Brightness Start Highest point End Pass type
(mag) Time Alt. Az. Time Alt. Az. Time Alt. Az.
4 Apr 6.9 01:26:06 22° NNE 01:26:06 22° NNE 01:27:59 10° NNE visible
4 Apr 6.8 03:08:08 14° NW 03:08:08 14° NW 03:09:26 10° NNW visible
5 Apr 6.9 01:14:25 20° NNE 01:14:25 20° NNE 01:16:09 10° NNE visible
5 Apr 6.8 02:56:27 14° NW 02:56:27 14° NW 02:57:49 10° NNW visible
6 Apr 7.0 01:02:44 19° NNE 01:02:44 19° NNE 01:04:18 10° NNE visible
6 Apr 6.8 02:44:45 15° NW 02:44:45 15° NW 02:46:11 10° NNW visible
7 Apr 7.1 00:51:01 18° NNE 00:51:01 18° NNE 00:52:27 10° NNE visible
7 Apr 6.8 02:33:02 15° NNW 02:33:02 15° NNW 02:34:32 10° NNW visible
8 Apr 7.1 00:39:17 17° NNE 00:39:17 17° NNE 00:40:36 10° NNE visible
8 Apr 6.8 02:21:19 16° NNW 02:21:19 16° NNW 02:22:51 10° NNW visible
9 Apr 7.2 00:27:33 16° NNE 00:27:33 16° NNE 00:28:44 10° NNE visible
9 Apr 6.8 02:09:34 17° NNW 02:09:34 17° NNW 02:11:10 10° NNW visible
10 Apr 7.2 00:15:48 15° NNE 00:15:48 15° NNE 00:16:51 10° NNE visible
10 Apr 6.8 01:57:50 17° NNW 01:57:50 17° NNW 01:59:28 10° NNW visible
11 Apr 7.2 00:04:03 14° NNE 00:04:03 14° NNE 00:04:58 10° NNE visible
11 Apr 6.8 01:46:04 18° NNW 01:46:04 18° NNW 01:47:45 10° NNW visible
11 Apr 7.3 23:52:17 14° NE 23:52:17 14° NE 23:53:05 10° NNE visible
12 Apr 6.8 01:34:17 18° NNW 01:34:17 18° NNW 01:36:02 10° N visible
12 Apr 7.3 23:40:29 13° NE 23:40:29 13° NE 23:41:10 10° NNE visible
13 Apr 6.8 01:22:30 19° NNW 01:22:30 19° NNW 01:24:19 10° N visible
13 Apr 7.3 23:28:42 12° NE 23:28:42 12° NE 23:29:15 10° NE visible
